Flag for Germany Weather past 2 weeks in Gladbeck, North Rhine-Westphalia, Germany

Now
83 °F

Passing clouds.


Feels Like: 86 °F
Forecast: 75 / 96 °F
Wind: 3 mph from Northeast

Location: Duesseldorf

Current Time: Jul 3, 2015 at 11:11:07 PM

Latest Report: Jul 3, 2015 at 10:00 PM


Visibility: 13 mi

Pressure: 30.16 "Hg

Humidity: 60%

Dew point: 67 °F

Location of GladbeckLocation

Historic Weather in Gladbeck — Graph

°F

Gladbeck temperature yesterday

Maximum temperature yesterday: 98 °F (at 4:00 PM)
Minimum temperature yesterday: 78 °F (at 6:00 AM)
Average temperature yesterday: 87 °F

Past Weeks' High & Low Weather Summary

 TemperatureHumidityPressure
High98 °F (Jul 2, 4:00 PM)98% (Jun 22, 10:00 PM)30.25 "Hg (Jun 22, 10:00 PM)
Low49 °F (Jun 23, 4:00 AM)26% (Jul 1, 6:00 PM)29.72 "Hg (Jun 22, 8:00 PM)
Average66 °F67%30.07 "Hg
* Reported Jun 18 10:00 PM — Jul 3 10:00 PM, Gladbeck, Weather by CustomWeather, © 2015

Note: Actual official high and low records may vary slightly from our data, if they occured in-between our weather recording intervals... More about our weather records

Advertising

Gladbeck weather history for previous 24 hours

 ConditionsComfort  
Time TempWeatherWind HumidityBarometerVisibility
10:00 PM
Fri, Jul 3
83 °FPassing clouds.3 mph60%30.16 "Hg12 mi
9:00 PM85 °FPassing clouds.3 mph55%30.16 "Hg12 mi
8:00 PM88 °FPassing clouds.3 mph49%30.16 "Hg17 mi
7:00 PM90 °FPassing clouds.3 mph45%30.16 "Hg16 mi
6:00 PM90 °FPassing clouds.2 mph45%30.16 "Hg16 mi
4:00 PM89 °FScattered clouds.2 mph46%30.19 "Hg16 mi
3:00 PM87 °FPassing clouds.3 mph48%30.20 "Hg17 mi
2:00 PM85 °FSunny.2 mph50%30.21 "Hg17 mi
1:00 PM84 °FSunny.3 mph55%30.22 "Hg19 mi
12:00 PM81 °FSunny.1 mph58%30.23 "Hg22 mi
10:00 AM77 °FPassing clouds.2 mph65%30.24 "Hg19 mi
9:00 AM74 °FPassing clouds.2 mph72%30.24 "Hg19 mi
8:00 AM71 °FPassing clouds.1 mph79%30.25 "Hg16 mi
7:00 AM68 °FScattered clouds.2 mph87%30.24 "Hg16 mi
4:00 AM70 °FPassing clouds.2 mph77%30.20 "Hg19 mi
3:00 AM72 °FPassing clouds.3 mph72%30.19 "Hg19 mi
2:00 AM74 °FThunderstorms. Passing clouds.3 mph71%30.17 "Hg19 mi
1:00 AM74 °FThunderstorms. Overcast.6 mph70%30.14 "Hg15 mi
12:00 AM76 °FThunderstorms. Passing clouds.5 mph65%30.13 "Hg17 mi
Weather by CustomWeather, © 2015

See weather overviewHow to use our weather pages